Location: Ceske Budejovice
(48.9830°N, 14.4670°E)
Time: 18:56:55
(UTC+02:00)

ISS - Visible Passes

Search period start: 22 September 2017 00:00
Search period end: 02 October 2017 00:00
Orbit: 401 x 407 km, 51.6° (Epoch: 23 September)

Date Brightness Start Highest point End Pass type
(mag) Time Alt. Az. Time Alt. Az. Time Alt. Az.
26 Sep -2.6 20:27:29 10° SSW 20:29:48 28° SSE 20:29:48 28° SSE visible
27 Sep -2.2 19:35:49 10° S 19:38:12 19° SE 19:39:57 13° ESE visible
27 Sep -1.9 21:11:02 10° WSW 21:12:37 26° WSW 21:12:37 26° WSW visible
28 Sep -3.7 20:18:44 10° SW 20:21:57 56° SSE 20:22:36 45° ESE visible
28 Sep -0.4 21:55:14 10° W 21:55:15 10° W 21:55:15 10° W visible
29 Sep -3.0 19:26:38 10° SW 19:29:39 35° SSE 19:32:27 11° E visible
29 Sep -2.6 21:02:45 10° W 21:05:06 42° W 21:05:06 42° W visible
30 Sep -3.9 20:10:17 10° WSW 20:13:33 87° NNW 20:14:50 35° ENE visible
30 Sep -0.6 21:47:01 10° WNW 21:47:29 13° WNW 21:47:29 13° WNW visible
01 Oct -3.7 19:17:55 10° WSW 19:21:09 65° SSE 19:24:25 10° ENE visible
01 Oct -2.8 20:54:29 10° W 20:57:08 45° NW 20:57:08 45° NW visible
